Home > Weather > Martigny > Past weeks

Flag for Switzerland Past Weather in Martigny, Valais, Switzerland — Yesterday and Last 2 Weeks

Now
84 °F

Warm.


Feels Like: 84 °F
Forecast: 63 / 82 °F
Wind: 13 mph from West

Location: Sion

Current Time: Jul 26, 2016 at 2:25:07 PM

Latest Report: Jul 26, 2016 at 1:00 PM


Visibility: N/A

Pressure: 29.98 "Hg

Humidity: 45%

Dew Point: 60 °F

Location of MartignyLocation

Past Weather in Martigny — Graph

°F

Martigny Temperature Yesterday

Maximum temperature yesterday: 85 °F (at 5:00 PM)
Minimum temperature yesterday: 62 °F (at 3:00 AM)
Average temperature yesterday: 73 °F

High & Low Weather Summary for the Past Weeks

 TemperatureHumidityPressure
High94 °F (Jul 20, 5:00 PM)95% (Jul 23, 12:00 AM)30.33 "Hg (Jul 23, 12:00 AM)
Low47 °F (Jul 15, 5:00 AM)25% (Jul 20, 6:00 PM)29.80 "Hg (Jul 11, 5:00 PM)
Average69 °F64%30.05 "Hg
* Reported Jul 11 1:00 PM — Jul 26 1:00 PM, Martigny, Weather by CustomWeather, © 2016

Note: Actual official high and low records may vary slightly from our data, if they occured in-between our weather recording intervals... More about our weather records

Advertising

Martigny Weather History for the Previous 24 Hours

Scroll right to see more
 ConditionsComfort  
Time TempWeatherWind HumidityBarometerVisibility
1:00 PM
Tue, Jul 26
84 °FWarm.13 mph45%29.98 "HgN/A
12:00 PM79 °FWarm.8 mph53%30.01 "HgN/A
11:00 AM78 °FPassing clouds.5 mph59%30.03 "Hg19 mi
10:00 AM74 °FMild.3 mph64%30.06 "HgN/A
9:00 AM71 °FMild.2 mph68%30.09 "HgN/A
8:00 AM67 °FPartly sunny.No wind76%30.10 "Hg16 mi
7:00 AM65 °FMild.1 mph81%30.10 "HgN/A
6:00 AM65 °FMild.2 mph84%30.10 "HgN/A
5:00 AM66 °FPassing clouds.No wind84%30.09 "Hg16 mi
4:00 AM65 °FMild.1 mph85%30.10 "HgN/A
3:00 AM68 °FMild.1 mph75%30.09 "HgN/A
2:00 AM67 °FPassing clouds.2 mph79%30.09 "Hg16 mi
1:00 AM68 °FMild.2 mph79%30.09 "HgN/A
12:00 AM71 °FMild.1 mph68%30.07 "HgN/A
11:00 PM
Mon, Jul 25
72 °FPassing clouds.3 mph69%30.06 "Hg12 mi
10:00 PM74 °FMild.2 mph62%30.03 "HgN/A
9:00 PM76 °FMild.12 mph57%30.00 "HgN/A
8:00 PM79 °FOvercast.18 mph51%29.98 "Hg22 mi
7:00 PM81 °FWarm.15 mph47%29.95 "HgN/A
6:00 PM84 °FWarm.18 mph42%29.92 "HgN/A
5:00 PM85 °FScattered clouds.18 mph43%29.91 "Hg25 mi
4:00 PM84 °FWarm.20 mph43%29.92 "HgN/A
3:00 PM83 °FWarm.17 mph44%29.94 "HgN/A
2:00 PM82 °FScattered clouds.14 mph45%29.96 "Hg16 mi
Weather by CustomWeather, © 2016

See weather overviewHow to use our weather pages